Location: Unnamed Road
(35.9029°N, 51.9749°E)
Time: 09:21:51
(UTC+04:30)

Transit 4A - Visible Passes

Search period start: 06 June 2020 00:00
Search period end: 16 June 2020 00:00
Orbit: 868 x 976 km, 66.8° (Epoch: 05 June)

Date Brightness Start Highest point End Pass type
(mag) Time Alt. Az. Time Alt. Az. Time Alt. Az.
06 Jun 8.5 00:39:40 43° ENE 00:39:40 43° ENE 00:43:50 10° NE visible
06 Jun 9.5 02:23:08 19° WNW 02:24:49 21° NW 02:29:13 10° N visible
07 Jun 8.0 00:48:21 63° NNE 00:48:21 63° NNE 00:53:15 10° NNE visible
07 Jun 10.0 02:31:50 11° WNW 02:34:31 15° NW 02:37:41 10° NNW visible
07 Jun 9.8 23:13:31 13° ENE 23:13:31 13° ENE 23:14:36 10° ENE visible
08 Jun 8.1 00:56:59 59° NW 00:56:59 59° NW 01:02:30 10° NNE visible
08 Jun 9.3 23:22:05 22° ENE 23:22:05 22° ENE 23:24:52 10° NE visible
09 Jun 8.7 01:05:33 38° WNW 01:06:06 39° WNW 01:11:37 10° NNE visible
09 Jun 8.6 23:30:34 37° ENE 23:30:34 37° ENE 23:34:40 10° NE visible
10 Jun 9.4 01:14:02 24° WNW 01:15:38 27° NW 01:20:34 10° N visible
10 Jun 7.8 23:38:58 63° ENE 23:38:58 63° ENE 23:44:12 10° NNE visible
11 Jun 9.9 01:22:26 14° W 01:25:15 19° NW 01:29:17 10° N visible
11 Jun 9.8 22:03:49 11° E 22:03:49 11° E 22:04:22 10° E visible
11 Jun 7.7 23:47:15 74° WSW 23:47:39 79° WNW 23:53:34 10° NNE visible
12 Jun 10.3 01:32:29 10° WNW 01:34:59 13° NW 01:37:32 10° NNW visible
12 Jun 9.1 22:11:57 20° E 22:11:57 20° E 22:15:21 10° ENE visible
12 Jun 8.4 23:55:23 40° WSW 23:57:01 51° WNW 00:02:46 10° NNE visible
13 Jun 8.4 22:19:54 32° ESE 22:20:15 32° ESE 22:25:24 10° NE visible
14 Jun 9.2 00:03:18 20° WSW 00:06:29 34° NW 00:11:50 10° N visible
14 Jun 7.9 22:27:33 37° SSE 22:29:25 51° ESE 22:35:05 10° NE visible
15 Jun 9.8 00:11:27 10° WSW 00:16:02 23° NW 00:20:42 10° N visible
15 Jun 7.6 22:34:46 22° SSW 22:38:39 80° ESE 22:44:34 10° NNE visible
